Location: Bergnerzell
(49.1816°N, 10.2565°E)
Time: 07:16:01
(UTC+00:00)

METEOR 1-5 DEB - Visible Passes

Search period start: 11 March 2026 00:00
Search period end: 21 March 2026 00:00
Orbit: 816 x 859 km, 81.2° (Epoch: 10 March)

Date Brightness Start Highest point End Pass type
(mag) Time Alt. Az. Time Alt. Az. Time Alt. Az.
11 Mar ? 20:18:55 10° N 20:21:47 24° NNE 20:21:47 24° NNE visible
11 Mar ? 22:01:21 10° NNW 22:03:31 23° NNW 22:03:31 23° NNW visible
12 Mar ? 20:03:01 10° N 20:06:10 24° NE 20:06:10 24° NE visible
12 Mar ? 21:45:16 10° NNW 21:47:55 27° NNW 21:47:55 27° NNW visible
13 Mar ? 19:47:08 10° N 19:50:34 23° NE 19:50:34 23° NE visible
13 Mar ? 21:29:13 10° NNW 21:32:19 33° NNW 21:32:19 33° NNW visible
14 Mar ? 19:31:18 10° NNE 19:34:59 21° NE 19:34:59 21° NE visible
14 Mar ? 21:13:10 10° NNW 21:16:43 40° NNW 21:16:43 40° NNW visible
15 Mar ? 19:15:30 10° NNE 19:19:25 19° ENE 19:19:25 19° ENE visible
15 Mar ? 20:57:08 10° NNW 21:01:10 48° NNW 21:01:10 48° NNW visible
15 Mar ? 22:41:51 10° NW 22:42:55 12° WNW 22:42:55 12° WNW visible
16 Mar ? 18:59:44 10° NNE 19:03:16 17° ENE 19:03:53 16° ENE visible
16 Mar ? 20:41:06 10° NNW 20:45:37 58° N 20:45:37 58° N visible
16 Mar ? 22:25:22 10° NW 22:27:22 15° WNW 22:27:22 15° WNW visible
17 Mar ? 18:44:03 10° NNE 18:47:07 15° NE 18:48:21 14° ENE visible
17 Mar ? 20:25:06 10° N 20:30:06 66° NNE 20:30:06 66° NNE visible
17 Mar ? 22:09:00 10° NW 22:11:51 18° WNW 22:11:51 18° WNW visible
18 Mar ? 18:28:28 10° NNE 18:30:55 13° NE 18:32:51 11° ENE visible
18 Mar ? 20:09:06 10° N 20:14:36 65° ENE 20:14:36 65° ENE visible
18 Mar ? 21:52:43 10° NW 21:56:22 21° WNW 21:56:22 21° WNW visible
19 Mar ? 18:13:07 10° NE 18:14:44 11° NE 18:16:20 10° ENE visible
19 Mar ? 19:53:07 10° N 19:58:43 57° ENE 19:59:08 56° E visible
19 Mar ? 21:36:28 10° NW 21:40:54 25° W 21:40:54 25° W visible
20 Mar ? 19:37:09 10° N 19:42:41 50° ENE 19:43:42 44° ESE visible
20 Mar ? 21:20:17 10° NNW 21:25:02 28° W 21:25:28 28° W visible
